Regional Weather Roundup
Issued by NWS

Home | Current Version | Previous Version | Text Only | Print | Product List | Glossary On
Versions: 1 2 3 4 5 6 7 8 9 10 11 12 13 14 15 16 17 18 19 20 21 22 23 24 25 26 27
000
ASUS46 KSEW 211710
RWRWA

WASHINGTON REGIONAL WEATHER ROUNDUP
NATIONAL WEATHER SERVICE SEATTLE WA
1000 AM PDT FRI JUL 21 2017

NOTE:"FAIR" INDICATES FEW OR NO CLOUDS BELOW 12,000 FEET WITH NO
SIGNIFICANT WEATHER AND/OR OBSTRUCTIONS TO VISIBILITY.

WAZ507-509-555>559-211800-
SEATTLE, TACOMA, EVERETT, AND VICINITY

CITY           SKY/WX    TMP DP  RH WIND       PRES   REMARKS
EVERETT        CLOUDY    64  54  69 CALM      30.16S
BOEING FIELD   PTSUNNY   66  56  70 VRB3      30.15S
RENTON         PTSUNNY   66  56  70 SE5       30.15S
SEATAC AIRPORT PTSUNNY   63  54  72 SW6       30.17R
JBLM-MCCHORD   PTSUNNY   64  57  77 SW5       30.16S
PUYALLUP       FAIR      66  55  68 CALM      30.17R
BREMERTON      PTSUNNY   64  53  67 SW9       30.16S
JBLM-FT LEWIS  PTSUNNY   64  57  77 CALM      30.15F
TACOMA NARROWS PTSUNNY   62  54  74 VRB3      30.17R
$$

WAZ001-503-506-510-514-515-211800-
NORTH INTERIOR

CITY           SKY/WX    TMP DP  RH WIND       PRES   REMARKS
BELLINGHAM     CLOUDY    63  53  70 S7        30.14S
FRIDAY HARBOR  CLOUDY    62  55  77 SE5       30.16S
EASTSOUND      CLOUDY    63  54  72 S8        30.15R
PORT ANGELES   CLOUDY    60  53  77 CALM      30.15S
EDIZ HOOK      CLOUDY    57  53  85 NW5       30.15S
PORT TOWNSEND  FAIR      66  55  68 E8        30.15S
NAS WHIDBEY    CLOUDY    64  52  64 W6        30.19R
ARLINGTON      PTSUNNY   65  53  65 VRB3      30.15
BURLINGTON     MOSUNNY   66  55  68 VRB5      30.15S
$$

WAZ020-022-039-040-504-511-512-211800-
SOUTHWEST INTERIOR

CITY           SKY/WX    TMP DP  RH WIND       PRES   REMARKS
SHELTON        PTSUNNY   65  55  70 CALM      30.14S
OLYMPIA        PTSUNNY   61  56  83 SW5       30.16F
CHEHALIS       FAIR      64  55  72 CALM      30.17S
KELSO          SUNNY     64  54  69 VRB3      30.17F
VANCOUVER      SUNNY     66  56  70 VRB3      30.15F
SCAPPOOSE, OR  SUNNY     66  55  67 VRB3      30.15F
PORTLAND, OR   MOSUNNY   65  55  70 VRB3      30.16F
$$

WAZ021-516-517-211800-
WASHINGTON COAST

CITY           SKY/WX    TMP DP  RH WIND       PRES   REMARKS
FORKS          CLOUDY    60  55  83 S3        30.16R
HOQUIAM        MOSUNNY   62  57  83 S3        30.16S
ASTORIA, OR    PTSUNNY   63  55  75 NE6       30.15S
$$

WAZ019-023-024-040-567>569-211800-
CASCADE MOUNTAINS AND COLUMBIA GORGE

CITY           SKY/WX    TMP DP  RH WIND       PRES   REMARKS
STAMPEDE PASS  MOSUNNY   55  47  74 VRB5      30.19S
TROUTDALE, OR  SUNNY     68  54  60 CALM      30.15F
HOOD RIVER, OR SUNNY     70  52  52 W9        30.13S
THE DALLES, OR SUNNY     73  53  49 NW7       30.11F
$$

WAZ026-027-041>044-520-521-211800-
EAST SLOPES

CITY           SKY/WX    TMP DP  RH WIND       PRES   REMARKS
OMAK           MOSUNNY   72  38  29 N12       30.10F
WENATCHEE      SUNNY     70  43  37 VRB5      30.10F
ELLENSBURG     SUNNY     69  46  43 VRB3      30.12S
YAKIMA         SUNNY     72  46  39 CALM      30.12S
SUNNYSIDE ARPT   N/A     66  48  51 CALM      30.11S
YAKIMA TC      FAIR      71  42  34 N3        30.10S
$$

WAZ028-034-035-211800-
COLUMBIA BASIN

CITY           SKY/WX    TMP DP  RH WIND       PRES   REMARKS
EPHRATA        SUNNY     73  37  27 VRB3      30.09S
MOSES LAKE     SUNNY     73  40  30 VRB3      30.11R
PASCO          SUNNY     73  48  41 SW5       30.11S
RICHLAND ARPT  SUNNY     74  45  35 CALM      30.10F
HERMISTON, OR  SUNNY     73  50  44 W9        30.11S
$$

WAZ036>038-211800-
NORTHEAST WASHINGTON

CITY           SKY/WX    TMP DP  RH WIND       PRES   REMARKS
SPOKANE GEIGER MOSUNNY   65  43  44 S12       30.13S
SPOKANE FELTS  SUNNY     69  44  40 SW12      30.13S
FAIRCHILD AFB  SUNNY     65  43  44 SW9       30.12S
COEURDALENE,ID SUNNY     68  45  43 CALM      30.15R
DEER PARK      SUNNY     66  42  41 S6        30.13S
$$

WAZ029>033-211800-
SOUTHEAST WASHINGTON

CITY           SKY/WX    TMP DP  RH WIND       PRES   REMARKS
PULLMAN        SUNNY     67  44  43 W7        30.17S
LEWISTON, ID   SUNNY     73  44  35 VRB3      30.13S
WALLA WALLA    SUNNY     72  47  40 SW9       30.12F
PENDLETON, OR  SUNNY     72  45  37 W9        30.13S
$$




USA.gov is the U.S. government's official web portal to all federal, state and local government web resources and services.